Flag for U.S.A. Weather past 2 weeks in Santa Clara, California, U.S.A.

Now
52 °F

Clear.


Feels Like: 52 °F
Forecast: 50 / 77 °F
Wind: No wind

Location: San Jose International Airport


UV Index: 5 (Moderate)

Visibility: 10 mi


Pressure: 30.12 "Hg

Humidity: 86%

Dew point: 48 °F

Location of Santa ClaraLocation

Historic Weather in Santa Clara

°F

Santa Clara temperature yesterday

Maximum temperature yesterday: 69 °F (at 1:53 PM)
Minimum temperature yesterday: 50 °F (at 6:53 AM)
Average temperature yesterday: 59 °F

Past Weeks' High & Low Weather Summary

 TemperatureHumidityPressure
High86 °F (Apr 8, 2:53 PM)93% (Apr 9, 5:53 AM)30.23 "Hg (Apr 9, 5:53 AM)
Low46 °F (Apr 6, 5:53 AM)23% (Apr 10, 2:53 PM)29.80 "Hg (Apr 17, 5:53 AM)
Average61 °F67%30.00 "Hg
* Reported Apr 5 2:53 AM — Apr 20 2:53 AM, Santa Clara, Weather by CustomWeather, © 2014

Note: Actual official high and low records may vary slightly from our data, if they occured in-between our weather recording intervals... More about our weather records

Advertising

Historic Weather Conditions — Data for Previous 24 hours

 ConditionsComfort  
Time TempWeatherWind HumidityBarometerVisibility
2:53 AM
Apr 20
53 °FClear.3 mph86%30.12 "Hg10 mi
1:53 AM54 °FClear.3 mph86%30.13 "Hg10 mi
12:53 AM55 °FClear.3 mph83%30.12 "Hg10 mi
11:53 PM
Apr 19
57 °FPassing clouds.No wind81%30.13 "Hg10 mi
10:53 PM56 °FPassing clouds.3 mph84%30.14 "Hg10 mi
9:53 PM57 °FPassing clouds.6 mph83%30.14 "Hg10 mi
8:53 PM58 °FPassing clouds.10 mph81%30.13 "Hg10 mi
7:53 PM59 °FScattered clouds.8 mph78%30.11 "Hg10 mi
6:53 PM62 °FScattered clouds.10 mph70%30.10 "Hg10 mi
5:53 PM64 °FPassing clouds.13 mph63%30.10 "Hg10 mi
4:53 PM66 °FPassing clouds.16 mph61%30.09 "Hg10 mi
3:53 PM67 °FScattered clouds.15 mph51%30.09 "Hg10 mi
2:53 PM69 °FScattered clouds.17 mph44%30.10 "Hg10 mi
1:53 PM69 °FScattered clouds.13 mph36%30.09 "Hg10 mi
12:53 PM67 °FPassing clouds.10 mph35%30.09 "Hg10 mi
11:53 AM64 °FPassing clouds.9 mph41%30.10 "Hg10 mi
10:53 AM62 °FPassing clouds.7 mph39%30.09 "Hg10 mi
9:53 AM58 °FPassing clouds.No wind58%30.08 "Hg10 mi
8:53 AM54 °FPassing clouds.5 mph74%30.07 "Hg10 mi
7:53 AM52 °FPassing clouds.No wind77%30.06 "Hg10 mi
6:53 AM50 °FPassing clouds.5 mph83%30.03 "Hg10 mi
5:53 AM51 °FPassing clouds.No wind80%30.02 "Hg10 mi
4:53 AM51 °FClear.3 mph80%30.01 "Hg10 mi
Weather by CustomWeather, © 2014

See weather overview